Regional Weather Roundup
Issued by NWS

Home | Current Version | Previous Version | Text Only | Print | Product List | Glossary On
Versions: 1 2 3 4 5 6 7 8 9 10 11 12 13 14 15 16 17 18 19 20 21 22 23 24 25 26 27 28 29 30 31 32 33 34 35 36 37 38 39 40 41 42 43 44 45 46 47 48 49 50
288
ASUS43 KFSD 211710
RWRSD

WEATHER ROUNDUP FOR SOUTH DAKOTA
NATIONAL WEATHER SERVICE SIOUX FALLS SD
1100 AM CST TUE NOV 21 2017

NOTE: "FAIR" INDICATES FEW OR NO CLOUDS BELOW 12,000 FEET WITH NO
SIGNIFICANT WEATHER AND/OR OBSTRUCTIONS TO VISIBILITY.


SDZ001>005-009-010-012>017-211800-
NORTHWEST AND NORTH CENTRAL SOUTH DAKOTA

CITY           SKY/WX    TMP DP  RH WIND       PRES   REMARKS
BUFFALO          N/A     19   4  51 NW14      30.26R WCI   6
FAITH            N/A     16   1  51 N25       30.34S WCI  -3
MOBRIDGE       SUNNY     17   4  56 NW20G30   30.35R WCI   1
$$

SDZ012>016-024>037-041>051-057-063-072>074-211800-
SOUTHWEST AND SOUTH CENTRAL SOUTH DAKOTA

CITY           SKY/WX    TMP DP  RH WIND       PRES   REMARKS
RAPID CTY ARPT CLOUDY    26  18  71 NE7       30.33R WCI  18
PIERRE         SUNNY     18   6  59 NW20      30.38R WCI   2
CUSTER         MOSUNNY   33  20  58 CALM      30.21R
ELLSWORTH AFB  CLOUDY    26  20  77 N14       30.31R WCI  15
PHILIP         SUNNY     21   8  57 N23G30    30.37R WCI   5
PINE RIDGE     CLOUDY    31  22  69 NW9       30.33R WCI  23
SPEARFISH      FAIR      28  19  69 NW12      30.30R WCI  18
WINNER         PTSUNNY   19  11  70 NW21      30.37R WCI   3
$$

SDZ004>011-016>023-039-040-211800-
NORTHEAST SOUTH DAKOTA

CITY           SKY/WX    TMP DP  RH WIND       PRES   REMARKS
ABERDEEN       SUNNY     20   6  55 NW18      30.33R WCI   5
WATERTOWN      SUNNY     19   8  62 NW22      30.23R WCI   2
BROOKINGS      SUNNY     20   9  62 NW24G30   30.23R WCI   3
SISSETON         N/A     21   9  59 N21G32    30.25R WCI   5
$$

SDZ017-020-022-023-036>040-048>070-211800-
SOUTHEAST SOUTH DAKOTA

CITY           SKY/WX    TMP DP  RH WIND       PRES   REMARKS
SIOUX FALLS    MOSUNNY   24  11  57 N20G32    30.25R WCI  10
HURON          SUNNY     20   6  55 N23G29    30.34R WCI   3
CHAMBERLAIN    MOSUNNY   21   9  59 NW18      30.36R WCI   6
MITCHELL       SUNNY     21   7  54 NW24G30   30.35R WCI   4
YANKTON        SUNNY     22   9  57 NW23G32   30.30R WCI   6
$$

ABBREVIATIONS USED IN REMARKS
   TC - TEMPERATURE IN CELSIUS
  WCI - WIND CHILL INDEX
   HX - HEAT INDEX
  VSB - VISIBILITY





USA.gov is the U.S. government's official web portal to all federal, state and local government web resources and services.